This is the latest recevied weather packets stored in our database for station/object N5ZP. If no packets are shown the sender has not sent any weather packets the latest 1 day(s).
| Time | Temp. | Humidity | Pressure | Rain* | Wind** | Luminosity | Snow |
|---|---|---|---|---|---|---|---|
| 1777987555 | 22.22° C | 81% | 1001 hPa | 0 mm | 1.34 m/s, 218° | 110 W/m² | - |
| 1777987253 | 22.22° C | 81% | 1000.9 hPa | 0 mm | 1.34 m/s, 144° | 88 W/m² | - |
| 1777986949 | 22.22° C | 81% | 1001.2 hPa | 0 mm | 1.34 m/s, 209° | 87 W/m² | - |
| 1777986647 | 22.22° C | 81% | 1001 hPa | 0 mm | 1.79 m/s, 167° | 108 W/m² | - |
| 1777986345 | 21.67° C | 82% | 1000.9 hPa | 0 mm | 1.34 m/s, 197° | 112 W/m² | - |
| 1777986043 | 21.67° C | 82% | 1000.9 hPa | 0 mm | 1.34 m/s, 191° | 95 W/m² | - |
| 1777985739 | 21.67° C | 82% | 1001 hPa | 0 mm | 0.89 m/s, 200° | 77 W/m² | - |
| 1777985436 | 21.11° C | 83% | 1001 hPa | 0 mm | 1.34 m/s, 213° | 69 W/m² | - |
| 1777985133 | 21.11° C | 83% | 1000.8 hPa | 0 mm | 0.89 m/s, 225° | 64 W/m² | - |
| 1777984829 | 21.11° C | 83% | 1000.9 hPa | 0 mm | 2.24 m/s, 199° | 61 W/m² | - |
| 1777984526 | 21.11° C | 83% | 1001 hPa | 0 mm | 0.89 m/s, 215° | 52 W/m² | - |
| 1777984222 | 21.11° C | 84% | 1000.7 hPa | 0 mm | 1.34 m/s, 204° | 52 W/m² | - |
| 1777983919 | 21.11° C | 83% | 1000.6 hPa | 0 mm | 2.24 m/s, 200° | 32 W/m² | - |
| 1777983616 | 21.11° C | 83% | 1000.6 hPa | 0 mm | 0.89 m/s, 206° | 32 W/m² | - |
| 1777983312 | 21.11° C | 84% | 1000.6 hPa | 0 mm | 0.89 m/s, 198° | 28 W/m² | - |
| 1777983015 | 20.56° C | 84% | 1000.5 hPa | 0 mm | 1.79 m/s, 215° | 23 W/m² | - |
| 1777982705 | 20.56° C | 84% | 1000.4 hPa | 0 mm | 1.34 m/s, 219° | 13 W/m² | - |
| 1777982405 | 20.56° C | 84% | 1000.5 hPa | 0 mm | 1.34 m/s, 235° | 11 W/m² | - |
| 1777982101 | 20.56° C | 84% | 1000.5 hPa | 0 mm | 1.34 m/s, 190° | 8 W/m² | - |
| 1777981799 | 20.56° C | 84% | 1000.5 hPa | 0 mm | 1.79 m/s, 215° | 5 W/m² | - |
| 1777981495 | 20.56° C | 84% | 1000.5 hPa | 0 mm | 1.34 m/s, 228° | 2 W/m² | - |
| 1777981191 | 20.56° C | 83% | 1000.4 hPa | 0 mm | 1.34 m/s, 177° | 2 W/m² | - |
| 1777980888 | 20.56° C | 83% | 1000.4 hPa | 0 mm | 1.79 m/s, 208° | 1 W/m² | - |
| 1777980583 | 20.56° C | 83% | 1000.4 hPa | 0 mm | 1.34 m/s, 191° | 0 W/m² | - |
| 1777980281 | 20.56° C | 83% | 1000.2 hPa | 0 mm | 1.79 m/s, 204° | 0 W/m² | - |
* Rain latest hour (hover to see other rain measurements)
** Current wind speed in m/s (hover to see current wind gust speed)